| time (UTC) | temp F | wind direction | speed knots | gust knots | rain 1hr in | rain 24hr in | rain mn in | humidity % | barometer mb |
| 20260505040050 | 37 | 223 | 2.6 | 11.3 | 0.00 | 0.00 | 0.00 | 81 | 1016.5 |
| 20260505034546 | 37 | 0 | 1.7 | 8.7 | 0.00 | 0.00 | 0.00 | 82 | 1016.5 |
| 20260505033042 | 37 | 360 | 0.9 | 3.5 | 0.00 | 0.00 | 0.00 | 84 | 1016.6 |
| 20260505031556 | 37 | 360 | 1.7 | 13.9 | 0.00 | 0.00 | 0.00 | 83 | 1016.5 |
| 20260505030050 | 37 | 221 | 4.3 | 12.2 | 0.00 | 0.00 | 0.00 | 82 | 1016.6 |
| 20260505024546 | 38 | 219 | 9.6 | 20.0 | 0.00 | 0.00 | 0.00 | 79 | 1016.1 |
| 20260505023056 | 39 | 360 | 3.5 | 10.4 | 0.00 | 0.00 | 0.00 | 75 | 1016.3 |
| 20260505021547 | 40 | 180 | 5.2 | 16.5 | 0.00 | 0.00 | 0.00 | 72 | 1016.2 |
| 20260505020044 | 41 | 151 | 6.1 | 17.4 | 0.00 | 0.00 | 0.00 | 68 | 1015.9 |
| 20260505014543 | 42 | 360 | 7.0 | 19.1 | 0.00 | 0.00 | 0.00 | 66 | 1016.0 |
| 20260505013045 | 42 | 360 | 6.1 | 16.5 | 0.00 | 0.00 | 0.00 | 66 | 1015.6 |
| 20260505011548 | 42 | 221 | 9.6 | 19.1 | 0.00 | 0.00 | 0.00 | 64 | 1015.7 |
| 20260505010048 | 43 | 360 | 10.4 | 24.3 | 0.00 | 0.00 | 0.00 | 63 | 1015.6 |
| 20260505004552 | 43 | 360 | 7.8 | 18.2 | 0.00 | 0.00 | 0.00 | 64 | 1015.8 |
| 20260505003047 | 43 | 360 | 11.3 | 21.7 | 0.00 | 0.00 | 0.00 | 64 | 1015.7 |
| 20260505001551 | 43 | 180 | 7.8 | 15.6 | 0.00 | 0.00 | 0.00 | 68 | 1016.3 |
| 20260505000106 | 43 | 211 | 7.0 | 14.8 | 0.00 | 0.00 | 0.00 | 70 | 1016.5 |
| 20260504234546 | 43 | 164 | 9.6 | 19.1 | 0.00 | 0.00 | 0.00 | 72 | 1016.6 |
| 20260504233044 | 45 | 360 | 7.8 | 17.4 | 0.00 | 0.00 | 0.00 | 69 | 1016.6 |
| 20260504231542 | 46 | 239 | 5.2 | 10.4 | 0.00 | 0.00 | 0.00 | 64 | 1016.6 |
| 20260504224549 | 48 | 360 | 3.5 | 9.6 | 0.00 | 0.00 | 0.00 | 62 | 1016.5 |
| 20260504223045 | 48 | 360 | 6.1 | 12.2 | 0.00 | 0.00 | 0.00 | 62 | 1016.5 |
| 20260504221559 | 48 | 178 | 4.3 | 9.6 | 0.00 | 0.00 | 0.00 | 63 | 1016.5 |
| 20260504220048 | 48 | 360 | 6.1 | 13.0 | 0.00 | 0.00 | 0.00 | 64 | 1016.7 |
| 20260504214550 | 46 | 360 | 4.3 | 15.6 | 0.00 | 0.00 | 0.00 | 71 | 1016.8 |
| 20260504213045 | 44 | 360 | 6.1 | 15.6 | 0.00 | 0.00 | 0.00 | 73 | 1017.0 |
| 20260504211547 | 44 | 151 | 7.0 | 17.4 | 0.00 | 0.00 | 0.00 | 73 | 1017.4 |
| 20260504210053 | 49 | 360 | 7.8 | 15.6 | 0.00 | 0.00 | 0.00 | 58 | 1017.2 |
| 20260504204541 | 50 | 232 | 1.7 | 13.0 | 0.00 | 0.00 | 0.00 | 58 | 1017.3 |
| 20260504203059 | 51 | 151 | 0.9 | 6.1 | 0.00 | 0.00 | 0.00 | 56 | 1017.3 |
| 20260504201544 | 51 | 0 | 1.7 | 7.0 | 0.00 | 0.00 | 0.00 | 60 | 1017.2 |
| 20260504200040 | 48 | 264 | 3.5 | 13.9 | 0.00 | 0.00 | 0.00 | 63 | 1017.3 |
| 20260504194542 | 47 | 163 | 0.9 | 5.2 | 0.00 | 0.00 | 0.00 | 61 | 1017.2 |
| 20260504193047 | 47 | 313 | 0.9 | 8.7 | 0.00 | 0.00 | 0.00 | 63 | 1017.3 |
| 20260504191546 | 47 | 0 | 1.7 | 8.7 | 0.00 | 0.00 | 0.00 | 66 | 1017.6 |
| 20260504190044 | 47 | 0 | 0.9 | 12.2 | 0.00 | 0.00 | 0.00 | 68 | 1017.7 |
| 20260504184540 | 45 | 0 | 0.9 | 9.6 | 0.00 | 0.00 | 0.00 | 72 | 1017.7 |
| 20260504183040 | 44 | 360 | 1.7 | 8.7 | 0.00 | 0.00 | 0.00 | 76 | 1017.9 |
| 20260504181554 | 45 | 273 | 1.7 | 11.3 | 0.00 | 0.00 | 0.00 | 66 | 1018.1 |
| 20260504180049 | 47 | 360 | 4.3 | 13.9 | 0.00 | 0.00 | 0.00 | 60 | 1018.1 |
| 20260504174544 | 47 | 219 | 5.2 | 15.6 | 0.00 | 0.00 | 0.00 | 59 | 1018.3 |
| 20260504173049 | 48 | 360 | 3.5 | 17.4 | 0.00 | 0.00 | 0.00 | 56 | 1018.2 |
| 20260504171549 | 49 | 360 | 7.0 | 14.8 | 0.00 | 0.00 | 0.00 | 56 | 1018.4 |
| 20260504081556 | 40 | 360 | 6.1 | 12.2 | 0.00 | 0.00 | 0.00 | 66 | 1019.4 |
| 20260504044546 | 40 | 0 | 0.0 | 3.5 | 0.00 | 0.00 | 0.00 | 48 | 1020.6 |
| 20260504043051 | 40 | 0 | 0.0 | 3.5 | 0.00 | 0.00 | 0.00 | 50 | 1020.8 |
| 20260504041549 | 40 | 0 | 0.0 | 1.7 | 0.00 | 0.00 | 0.00 | 49 | 1020.8 |